New Castle, PA

11:07 AM EDT on May 24, 2017 (GMT -0400)
New Castle Municipal

Weather History for KUCP - April, 2014

Change the Weather History Date:

Tuesday, April 15, 2014

  Actual Average Record
Temperature  
Mean Temperature 40 °F -  
Max Temperature 55 °F 64 °F 81 °F (1941)
Min Temperature 26 °F 36 °F 20 °F (1943)
Degree Days  
Heating Degree Days 24    
Moisture  
Dew Point 31 °F    
Average Humidity 90    
Maximum Humidity 100    
Minimum Humidity 63    
Precipitation  
Precipitation 0.08 in - - ()
Sea Level Pressure  
Sea Level Pressure 29.81 in    
Wind  
Wind Speed 9 mph (NW)    
Max Wind Speed 16 mph    
Max Gust Speed 26 mph    
Visibility 6 miles    
Events Rain , Snow    
Averages and records for this station are not official NWS values.
T = Trace of Precipitation, MM = Missing Value Source: NWS Daily Summary

Daily Weather History Graph

Daily Weather History Graph

Search for Another Location

Airport or City:

Trip Planner

Search our weather history database for the weather conditions in past years. The results will help you decide how hot, cold, wet, or windy it might be!

Date:

Astronomy

Apr. 15, 2014 Rise Set
Actual Time 6:42 AM EDT 8:01 PM EDT
Civil Twilight 6:13 AM EDT 8:30 PM EDT
Nautical Twilight 5:39 AM EDT 9:04 PM EDT
Astronomical Twilight 5:03 AM EDT 9:40 PM EDT
Moon 8:41 PM EDT (4/15) 6:49 AM EDT (4/15)
Length of Visible Light 14h 16m
Length of Day
13h 18m
Full, 100% of the Moon is Illuminated
Apr 15
Full
Apr 22
Last Quarter
Apr 29
New
May 6
First Quarter
May 14
Full

Hourly Weather History & Observations

Time (EDT) Temp. Windchill Dew Point Humidity Pressure Visibility Wind Dir Wind Speed Gust Speed Precip Events Conditions
12:12 AM 55.4 °F - 53.6 °F 94% 29.64 in 10.0 mi NW 5.8 mph - N/A   Mostly Cloudy
12:35 AM 53.6 °F - 53.6 °F 100% 29.64 in 10.0 mi NW 3.5 mph - N/A   Mostly Cloudy
1:15 AM 53.6 °F - 51.8 °F 94% 29.62 in 10.0 mi Calm Calm - N/A   Mostly Cloudy
1:56 AM 51.8 °F - 51.8 °F 100% 29.62 in 10.0 mi WNW 4.6 mph - N/A   Mostly Cloudy
2:04 AM 51.8 °F - 51.8 °F 100% 29.62 in 10.0 mi WNW 8.1 mph - N/A   Mostly Cloudy
2:13 AM 51.8 °F - 51.8 °F 100% 29.61 in 10.0 mi Variable 3.5 mph - N/A   Mostly Cloudy
2:25 AM 51.8 °F - 50.0 °F 94% 29.61 in 10.0 mi WNW 9.2 mph - N/A   Overcast
2:56 AM 47.8 °F - 46.9 °F 97% 29.64 in 10.0 mi NW 8.1 mph - 0.00 in   Overcast
3:24 AM 46.4 °F 42.4 °F 46.4 °F 100% 29.60 in 10.0 mi WNW 8.1 mph - N/A   Overcast
3:44 AM 44.6 °F 38.4 °F 44.6 °F 100% 29.60 in 8.0 mi North 12.7 mph 17.3 mph N/A   Overcast
3:56 AM 41.9 °F 34.6 °F 41.0 °F 97% 29.67 in 7.0 mi NW 13.8 mph - N/A   Overcast
4:30 AM 39.2 °F 30.8 °F 37.4 °F 93% 29.65 in 9.0 mi NW 15.0 mph 21.9 mph 0.00 in Rain Light Rain
4:56 AM 37.4 °F 28.9 °F 35.6 °F 93% 29.62 in 7.0 mi North 13.8 mph - N/A Rain Light Rain
5:08 AM 37.4 °F 28.5 °F 35.6 °F 93% 29.62 in 6.0 mi NNW 15.0 mph 19.6 mph 0.00 in Rain Light Rain
5:19 AM 37.4 °F 28.5 °F 35.6 °F 93% 29.63 in 10.0 mi NNW 15.0 mph 19.6 mph 0.00 in Rain Light Rain
5:56 AM 34.9 °F 25.3 °F 32.9 °F 92% 29.71 in 2.0 mi NNW 15.0 mph 20.7 mph 0.02 in Rain Light Rain
5:59 AM 35.6 °F 28.0 °F 32.0 °F 87% 29.67 in 3.0 mi NNW 10.4 mph 20.7 mph 0.00 in Rain Light Rain
6:15 AM 33.8 °F 23.9 °F 32.0 °F 93% 29.68 in 4.0 mi NW 15.0 mph 18.4 mph 0.01 in Rain Light Rain
6:24 AM 33.8 °F 24.3 °F 32.0 °F 93% 29.68 in 6.0 mi NW 13.8 mph 21.9 mph 0.01 in Rain Light Rain
6:34 AM 33.8 °F 23.9 °F 32.0 °F 93% 29.69 in 3.0 mi NW 15.0 mph 20.7 mph 0.02 in Rain Light Rain
6:38 AM 33.8 °F 23.9 °F 32.0 °F 93% 29.70 in 2.5 mi NW 15.0 mph 20.7 mph 0.02 in Rain Light Rain
6:43 AM 33.8 °F 24.3 °F 32.0 °F 93% 29.70 in 3.0 mi NW 13.8 mph - 0.02 in Rain Light Rain
6:48 AM 33.8 °F 23.5 °F 32.0 °F 93% 29.71 in 2.5 mi NW 16.1 mph 26.5 mph 0.02 in Rain Light Rain
6:56 AM 32.9 °F 23.2 °F 31.1 °F 93% 29.76 in 2.5 mi NW 13.8 mph 26.5 mph 0.02 in Rain Light Rain
6:59 AM 33.8 °F 25.8 °F 30.2 °F 87% 29.72 in 3.0 mi NW 10.4 mph - 0.00 in Rain Light Rain
7:02 AM 32.0 °F 24.2 °F 30.2 °F 93% 29.71 in 2.5 mi NW 9.2 mph - 0.00 in Rain Light Rain
7:17 AM 32.0 °F 24.2 °F 32.0 °F 100% 29.70 in 1.5 mi NW 9.2 mph - 0.00 in   Overcast
7:22 AM 32.0 °F 24.2 °F 32.0 °F 100% 29.70 in 2.0 mi NW 9.2 mph - 0.00 in   Overcast
7:31 AM 32.0 °F 24.2 °F 32.0 °F 100% 29.72 in 4.0 mi NW 9.2 mph - 0.01 in   Overcast
7:36 AM 32.0 °F 23.0 °F 30.2 °F 93% 29.72 in 2.5 mi NW 11.5 mph - 0.02 in   Overcast
7:46 AM 32.0 °F 22.1 °F 30.2 °F 93% 29.71 in 3.0 mi NW 13.8 mph 21.9 mph 0.02 in   Overcast
7:56 AM 32.0 °F 22.5 °F 30.2 °F 93% 29.72 in 7.0 mi NW 12.7 mph 17.3 mph N/A   Overcast
8:07 AM 33.8 °F 27.7 °F 30.2 °F 87% 29.73 in 5.0 mi WNW 6.9 mph - 0.01 in Rain Light Rain
8:13 AM 32.0 °F 24.2 °F 30.2 °F 93% 29.73 in 2.5 mi NW 9.2 mph - 0.01 in Rain Light Rain
8:17 AM 32.0 °F 23.0 °F 30.2 °F 93% 29.74 in 1.8 mi NW 11.5 mph - 0.02 in   Overcast
8:22 AM 32.0 °F 24.2 °F 30.2 °F 93% 29.75 in 2.0 mi NW 9.2 mph - 0.02 in   Overcast
8:38 AM 30.2 °F 21.3 °F 30.2 °F 100% 29.76 in 1.5 mi WNW 10.4 mph - 0.02 in Snow Light Snow
8:56 AM 31.1 °F 22.4 °F 30.0 °F 96% 29.83 in 1.0 mi WNW 10.4 mph - 0.02 in Snow Light Snow
9:12 AM 30.2 °F 22.6 °F 30.2 °F 100% 29.78 in 0.8 mi NW 8.1 mph - 0.01 in Snow Light Snow
9:21 AM 30.2 °F 23.4 °F 30.2 °F 100% 29.79 in 1.2 mi WNW 6.9 mph - 0.01 in Snow Light Snow
9:23 AM 30.2 °F 21.3 °F 30.2 °F 100% 29.79 in 1.5 mi WNW 10.4 mph 16.1 mph 0.01 in Snow Light Snow
9:27 AM 30.2 °F 21.9 °F 28.4 °F 93% 29.79 in 2.5 mi WNW 9.2 mph 16.1 mph 0.01 in Snow Light Snow
9:30 AM 30.2 °F 20.8 °F 28.4 °F 93% 29.79 in 3.0 mi WNW 11.5 mph 16.1 mph 0.01 in Snow Light Snow
9:56 AM 31.1 °F 21.9 °F 28.0 °F 88% 29.86 in 3.0 mi WNW 11.5 mph - 0.02 in Snow Light Snow
10:04 AM 30.2 °F 21.9 °F 28.4 °F 93% 29.81 in 2.0 mi WNW 9.2 mph 17.3 mph 0.00 in Snow Light Snow
10:23 AM 30.2 °F 20.2 °F 28.4 °F 93% 29.83 in 7.0 mi NW 12.7 mph 17.3 mph 0.00 in Snow Light Snow
10:56 AM 32.0 °F 23.0 °F 28.4 °F 87% 29.85 in 10.0 mi WNW 11.5 mph - N/A Snow Light Snow
11:12 AM 32.0 °F 22.1 °F 26.6 °F 80% 29.88 in 8.0 mi WNW 13.8 mph 21.9 mph 0.00 in Snow Light Snow
11:27 AM 32.0 °F 23.0 °F 26.6 °F 80% 29.88 in 10.0 mi NW 11.5 mph - 0.00 in   Mostly Cloudy
11:35 AM 32.0 °F 23.0 °F 28.4 °F 87% 29.87 in 10.0 mi NW 11.5 mph 19.6 mph 0.00 in   Mostly Cloudy
11:43 AM 32.0 °F 23.6 °F 28.4 °F 87% 29.86 in 6.0 mi NNW 10.4 mph - 0.00 in Snow Light Snow
11:56 AM 32.0 °F 25.6 °F 28.0 °F 85% 29.93 in 7.0 mi NW 6.9 mph - 0.00 in Snow Light Snow
12:06 PM 32.0 °F 24.2 °F 28.4 °F 87% 29.89 in 1.8 mi West 9.2 mph - 0.00 in Snow Light Snow
12:11 PM 32.0 °F 23.6 °F 28.4 °F 87% 29.89 in 1.2 mi WNW 10.4 mph 17.3 mph 0.00 in Snow Light Snow
12:24 PM 30.2 °F 20.8 °F 28.4 °F 93% 29.89 in 1.2 mi WNW 11.5 mph 20.7 mph 0.00 in Snow Light Snow
12:28 PM 30.2 °F 20.8 °F 28.4 °F 93% 29.88 in 2.5 mi NW 11.5 mph - 0.00 in Snow Light Snow
12:31 PM 32.0 °F 22.1 °F 28.4 °F 87% 29.88 in 6.0 mi NW 13.8 mph - 0.00 in Snow Light Snow
12:39 PM 30.2 °F 20.8 °F 28.4 °F 93% 29.87 in 1.8 mi NW 11.5 mph 19.6 mph 0.00 in Snow Light Snow
12:56 PM 31.1 °F 23.7 °F 28.0 °F 88% 29.95 in 1.8 mi West 8.1 mph - 0.00 in Snow Light Snow
1:01 PM 30.2 °F 21.3 °F 28.4 °F 93% 29.89 in 2.0 mi WNW 10.4 mph - 0.00 in Snow Light Snow
1:09 PM 30.2 °F 21.3 °F 26.6 °F 86% 29.92 in 7.0 mi WNW 10.4 mph 19.6 mph 0.00 in Snow Light Snow
1:56 PM 30.2 °F 20.2 °F 24.8 °F 80% 29.94 in 10.0 mi WNW 12.7 mph 18.4 mph N/A Snow Light Snow
2:56 PM 29.1 °F 18.4 °F 25.2 °F 85% 30.02 in 10.0 mi NW 13.8 mph 23.0 mph 0.00 in Snow Light Snow
3:56 PM 29.1 °F 20.6 °F 24.1 °F 81% 30.06 in 10.0 mi WNW 9.2 mph 16.1 mph 0.00 in Snow Light Snow
4:56 PM 28.4 °F 18.5 °F 24.8 °F 86% 29.99 in 2.5 mi WNW 11.5 mph - N/A Snow Light Snow
5:00 PM 28.4 °F 18.0 °F 23.0 °F 80% 29.99 in 3.0 mi WNW 12.7 mph 19.6 mph 0.00 in Snow Light Snow
5:56 PM 29.1 °F 18.4 °F 21.0 °F 72% 30.11 in 10.0 mi WNW 13.8 mph - 0.00 in   Mostly Cloudy
6:56 PM 28.0 °F 18.1 °F 21.0 °F 75% 30.12 in 10.0 mi WNW 11.5 mph 17.3 mph 0.00 in Snow Light Snow
7:03 PM 28.4 °F 18.5 °F 19.4 °F 69% 30.04 in 10.0 mi WNW 11.5 mph 18.4 mph 0.00 in   Scattered Clouds
7:56 PM 26.6 °F 17.5 °F 19.4 °F 74% 30.09 in 10.0 mi WNW 9.2 mph - N/A Snow Light Snow
8:56 PM 27.1 °F 17.5 °F 16.2 °F 63% 30.22 in 10.0 mi NW 10.4 mph - 0.00 in   Partly Cloudy
9:56 PM 26.1 °F 21.9 °F 16.2 °F 66% 30.25 in 10.0 mi WNW 3.5 mph - N/A   Clear
10:56 PM 26.1 °F - 17.1 °F 69% 30.27 in 10.0 mi Calm Calm - N/A   Partly Cloudy
11:56 PM 26.1 °F 20.5 °F 20.1 °F 78% 30.29 in 10.0 mi North 4.6 mph - N/A   Mostly Cloudy